Middlebury State AP, Middlebu, VT

7:08 AM EST on November 17, 2019 (GMT -0500)
Middlebury State AP, Middlebu

Weather History for K6B0 - June, 2019

Change the Weather History Date:

Saturday, June 1, 2019

  Actual Average (KRUT) Record (KRUT)
Temperature  
Mean Temperature 58 °F -  
Max Temperature 73 °F 75 °F 90 °F (1970)
Min Temperature 42 °F 51 °F 35 °F (1967)
Degree Days  
Heating Degree Days 8    
Growing Degree Days 8 (Base 50)    
Moisture  
Dew Point 49 °F    
Average Humidity 74    
Maximum Humidity 95    
Minimum Humidity 46    
Precipitation  
Precipitation 0.00 in - - ()
Sea Level Pressure  
Sea Level Pressure 29.80 in    
Wind  
Wind Speed 1 mph (WNW)    
Max Wind Speed 7 mph    
Max Gust Speed -    
Visibility 10 miles    
Events Rain    
Averages and records for this station are not official NWS values.
T = Trace of Precipitation, MM = Missing Value Source: NWS Daily Summary

Daily Weather History Graph

Daily Weather History Graph

Search for Another Location

Airport or City:

Astronomy

Jun. 01, 2019 Rise Set
Actual Time 5:12 AM EDT 8:28 PM EDT
Civil Twilight 4:37 AM EDT 9:03 PM EDT
Nautical Twilight 3:51 AM EDT 9:49 PM EDT
Astronomical Twilight 2:55 AM EDT 10:45 PM EDT
Moon 4:22 AM EDT (6/1) 6:33 PM EDT (6/1)
Length of Visible Light 16h 26m
Length of Day
15h 15m
Waning Crescent, 4% of the Moon is Illuminated
Jun 1
Waning Crescent
Jun 3
New
Jun 10
First Quarter
Jun 17
Full
Jun 25
Last Quarter

Hourly Weather History & Observations

Time (EDT) Temp. Windchill Dew Point Humidity Pressure Visibility Wind Dir Wind Speed Gust Speed Precip Events Conditions
12:15 AM 46.8 °F - 42.1 °F 84% 29.84 in 10.0 mi Calm Calm - N/A   Clear
12:35 AM 45.5 °F - 41.7 °F 87% 29.84 in 10.0 mi Calm Calm - N/A   Clear
12:55 AM 45.5 °F - 41.9 °F 87% 29.84 in 10.0 mi Calm Calm - N/A   Clear
12:56 AM 45.5 °F - 41.7 °F 87% 29.84 in 10.0 mi Calm Calm - N/A   Clear
1:15 AM 45.9 °F - 41.5 °F 85% 29.84 in 10.0 mi Calm Calm - N/A   Clear
1:16 AM 45.7 °F - 41.4 °F 85% 29.84 in 10.0 mi Calm Calm - N/A   Clear
1:35 AM 45.5 °F - 41.2 °F 85% 29.84 in 10.0 mi Calm Calm - N/A   Clear
1:36 AM 45.5 °F - 41.0 °F 84% 29.84 in 10.0 mi Calm Calm - N/A   Clear
1:55 AM 44.2 °F - 41.0 °F 88% 29.83 in 10.0 mi Calm Calm - N/A   Clear
1:56 AM 44.2 °F - 41.0 °F 88% 29.83 in 10.0 mi Calm Calm - N/A   Clear
2:15 AM 45.1 °F - 41.2 °F 86% 29.83 in 10.0 mi Calm Calm - N/A   Clear
2:16 AM 45.0 °F - 41.0 °F 86% 29.83 in 10.0 mi Calm Calm - N/A   Clear
2:35 AM 43.3 °F - 40.5 °F 90% 29.83 in 10.0 mi Calm Calm - N/A   Clear
2:36 AM 43.0 °F - 40.5 °F 91% 29.84 in 10.0 mi Calm Calm - N/A   Clear
2:55 AM 43.2 °F - 41.0 °F 92% 29.83 in 10.0 mi Calm Calm - N/A   Clear
2:56 AM 43.3 °F - 41.2 °F 92% 29.83 in 10.0 mi Calm Calm - N/A   Clear
3:15 AM 43.0 °F - 40.6 °F 91% 29.83 in 10.0 mi Calm Calm - N/A   Scattered Clouds
3:16 AM 43.0 °F - 40.6 °F 91% 29.83 in 10.0 mi Calm Calm - N/A   Scattered Clouds
3:35 AM 42.8 °F - 40.8 °F 93% 29.84 in 10.0 mi Calm Calm - N/A   Clear
3:36 AM 42.8 °F - 40.6 °F 92% 29.84 in 10.0 mi Calm Calm - N/A   Clear
3:55 AM 44.4 °F - 41.2 °F 88% 29.84 in 10.0 mi Calm Calm - N/A   Mostly Cloudy
3:56 AM 44.4 °F - 41.2 °F 88% 29.84 in 10.0 mi Calm Calm - N/A   Mostly Cloudy
4:15 AM 43.7 °F - 41.7 °F 93% 29.84 in 10.0 mi Calm Calm - N/A   Mostly Cloudy
4:16 AM 43.7 °F - 41.7 °F 93% 29.84 in 10.0 mi Calm Calm - N/A   Mostly Cloudy
4:35 AM 43.3 °F 41.7 °F 41.9 °F 95% 29.84 in 10.0 mi South 3.5 mph - N/A   Mostly Cloudy
4:36 AM 43.5 °F 41.9 °F 41.9 °F 94% 29.84 in 10.0 mi South 3.5 mph - N/A   Mostly Cloudy
4:55 AM 43.7 °F 42.1 °F 41.9 °F 93% 29.84 in 10.0 mi South 3.5 mph - N/A   Mostly Cloudy
4:56 AM 43.9 °F 42.3 °F 41.7 °F 92% 29.84 in 10.0 mi South 3.5 mph - N/A   Mostly Cloudy
5:15 AM 43.7 °F - 42.1 °F 94% 29.85 in 10.0 mi Calm Calm - N/A   Mostly Cloudy
5:16 AM 43.9 °F - 42.1 °F 93% 29.85 in 10.0 mi Calm Calm - N/A   Mostly Cloudy
5:35 AM 45.1 °F - 43.3 °F 93% 29.86 in 10.0 mi Calm Calm - N/A   Overcast
5:36 AM 45.1 °F - 43.3 °F 93% 29.86 in 10.0 mi Calm Calm - N/A   Overcast
5:55 AM 46.0 °F - 43.5 °F 91% 29.87 in 10.0 mi Calm Calm - N/A   Overcast
5:56 AM 46.0 °F - 43.7 °F 92% 29.87 in 10.0 mi Calm Calm - N/A   Overcast
6:15 AM 46.4 °F - 43.9 °F 91% 29.86 in 10.0 mi Calm Calm - N/A   Overcast
6:16 AM 46.4 °F - 43.9 °F 91% 29.86 in 10.0 mi Calm Calm - N/A   Overcast
6:35 AM 47.1 °F - 43.7 °F 88% 29.87 in 10.0 mi NNW 3.5 mph - N/A   Overcast
6:36 AM 47.1 °F - 43.9 °F 88% 29.87 in 10.0 mi NNW 3.5 mph - N/A   Overcast
6:55 AM 46.8 °F - 42.8 °F 86% 29.87 in 10.0 mi Calm Calm - N/A   Overcast
6:56 AM 46.9 °F - 42.8 °F 86% 29.88 in 10.0 mi Calm Calm - N/A   Overcast
7:15 AM 47.3 °F - 43.9 °F 88% 29.89 in 10.0 mi Calm Calm - N/A Rain Light Rain
7:16 AM 47.3 °F - 43.9 °F 88% 29.89 in 10.0 mi Calm Calm - N/A Rain Light Rain
7:35 AM 47.7 °F - 44.8 °F 90% 29.86 in 10.0 mi Calm Calm - N/A Rain Rain
7:36 AM 47.7 °F - 44.8 °F 90% 29.86 in 10.0 mi South 3.5 mph - N/A Rain Rain
7:55 AM 48.6 °F - 46.0 °F 91% 29.87 in 10.0 mi Calm Calm - N/A Rain Light Rain
7:56 AM 48.6 °F - 46.0 °F 91% 29.87 in 10.0 mi Calm Calm - N/A Rain Light Rain
8:15 AM 49.1 °F - 46.2 °F 90% 29.88 in 10.0 mi Calm Calm - N/A   Overcast
8:16 AM 49.1 °F - 46.2 °F 90% 29.88 in 10.0 mi Calm Calm - N/A   Overcast
8:35 AM 49.8 °F - 47.3 °F 91% 29.88 in 10.0 mi Calm Calm - N/A   Overcast
8:36 AM 50.0 °F - 47.3 °F 90% 29.88 in 10.0 mi Calm Calm - N/A   Overcast
8:55 AM 50.4 °F - 47.3 °F 89% 29.88 in 10.0 mi Calm Calm - N/A   Overcast
8:56 AM 50.4 °F - 47.3 °F 89% 29.88 in 10.0 mi Calm Calm - N/A   Overcast
9:15 AM 51.4 °F - 48.0 °F 88% 29.87 in 10.0 mi Calm Calm - N/A   Overcast
9:16 AM 51.6 °F - 48.0 °F 87% 29.87 in 10.0 mi Calm Calm - N/A   Overcast
9:35 AM 53.6 °F - 48.9 °F 84% 29.87 in 10.0 mi North 3.5 mph - N/A   Overcast
9:36 AM 53.8 °F - 48.9 °F 84% 29.87 in 10.0 mi North 3.5 mph - N/A   Overcast
9:55 AM 55.4 °F - 48.9 °F 79% 29.87 in 10.0 mi Calm Calm - N/A   Mostly Cloudy
9:56 AM 55.6 °F - 48.9 °F 78% 29.87 in 10.0 mi Calm Calm - N/A   Mostly Cloudy
10:15 AM 56.8 °F - 48.9 °F 75% 29.87 in 10.0 mi Calm Calm - N/A   Scattered Clouds
10:16 AM 57.0 °F - 48.9 °F 74% 29.87 in 10.0 mi Calm Calm - N/A   Scattered Clouds
10:35 AM 59.0 °F - 48.7 °F 69% 29.86 in 10.0 mi Calm Calm - N/A   Mostly Cloudy
10:36 AM 59.0 °F - 48.6 °F 68% 29.86 in 10.0 mi Calm Calm - N/A   Mostly Cloudy
10:55 AM 59.9 °F - 50.2 °F 70% 29.85 in 10.0 mi South 3.5 mph - N/A   Overcast
10:56 AM 59.9 °F - 50.2 °F 70% 29.85 in 10.0 mi South 3.5 mph - N/A   Overcast
11:15 AM 61.7 °F - 51.1 °F 68% 29.84 in 10.0 mi South 3.5 mph - N/A   Overcast
11:16 AM 62.1 °F - 50.9 °F 67% 29.84 in 10.0 mi SSW 3.5 mph - N/A   Overcast
11:35 AM 64.2 °F - 48.7 °F 57% 29.83 in 10.0 mi SSW 4.6 mph - N/A   Overcast
11:36 AM 64.4 °F - 48.7 °F 57% 29.83 in 10.0 mi SSW 4.6 mph - N/A   Overcast
11:55 AM 65.7 °F - 47.3 °F 51% 29.83 in 10.0 mi SW 5.8 mph - N/A   Overcast
11:56 AM 65.8 °F - 47.8 °F 52% 29.83 in 10.0 mi WSW 5.8 mph - N/A   Overcast
12:15 PM 66.4 °F - 47.8 °F 51% 29.83 in 10.0 mi Calm Calm - N/A   Overcast
12:16 PM 66.4 °F - 48.2 °F 52% 29.83 in 10.0 mi WNW 3.5 mph - N/A   Overcast
12:35 PM 66.9 °F - 46.6 °F 48% 29.83 in 10.0 mi Calm Calm - N/A   Overcast
12:36 PM 66.7 °F - 46.4 °F 48% 29.83 in 10.0 mi Calm Calm - N/A   Overcast
12:55 PM 67.5 °F - 48.6 °F 51% 29.82 in 10.0 mi WNW 3.5 mph - N/A   Overcast
12:56 PM 67.6 °F - 48.6 °F 50% 29.82 in 10.0 mi West 3.5 mph - N/A   Overcast
1:15 PM 68.0 °F - 47.5 °F 48% 29.81 in 10.0 mi Calm Calm - N/A   Mostly Cloudy
1:16 PM 68.0 °F - 47.5 °F 48% 29.81 in 10.0 mi Calm Calm - N/A   Mostly Cloudy
1:35 PM 69.4 °F - 47.8 °F 46% 29.80 in 10.0 mi Calm Calm - N/A   Mostly Cloudy
1:36 PM 69.8 °F - 48.2 °F 46% 29.80 in 10.0 mi WSW 3.5 mph - N/A   Mostly Cloudy
1:55 PM 70.5 °F - 48.6 °F 46% 29.79 in 10.0 mi South 4.6 mph - N/A   Scattered Clouds
1:56 PM 70.7 °F - 48.9 °F 46% 29.79 in 10.0 mi SSW 5.8 mph - N/A   Scattered Clouds
2:15 PM 71.8 °F - 49.8 °F 46% 29.78 in 10.0 mi SSW 6.9 mph - N/A   Clear
2:16 PM 71.8 °F - 50.2 °F 46% 29.78 in 10.0 mi SSW 5.8 mph - N/A   Clear
2:35 PM 71.6 °F - 50.4 °F 47% 29.78 in 10.0 mi WNW 4.6 mph - N/A   Clear
2:36 PM 71.6 °F - 50.7 °F 48% 29.78 in 10.0 mi West 4.6 mph - N/A   Clear
2:55 PM 71.8 °F - 50.5 °F 47% 29.77 in 10.0 mi West 3.5 mph - N/A   Scattered Clouds
2:56 PM 71.8 °F - 50.7 °F 47% 29.77 in 10.0 mi Calm Calm - N/A   Scattered Clouds
3:15 PM 72.7 °F - 50.9 °F 46% 29.76 in 10.0 mi Calm Calm - N/A   Scattered Clouds
3:16 PM 72.7 °F - 50.5 °F 46% 29.76 in 10.0 mi Calm Calm - N/A   Clear
3:35 PM 72.9 °F - 51.3 °F 47% 29.76 in 10.0 mi SSW 6.9 mph - N/A   Scattered Clouds
3:36 PM 72.7 °F - 51.4 °F 47% 29.76 in 10.0 mi South 6.9 mph - N/A   Scattered Clouds
3:55 PM 72.7 °F - 52.3 °F 49% 29.75 in 10.0 mi Calm Calm - N/A   Mostly Cloudy
3:56 PM 72.7 °F - 52.0 °F 48% 29.75 in 10.0 mi Calm Calm - N/A   Mostly Cloudy
4:15 PM 73.4 °F - 53.4 °F 49% 29.74 in 10.0 mi Calm Calm - N/A   Overcast
4:16 PM 73.4 °F - 53.2 °F 49% 29.74 in 10.0 mi Calm Calm - N/A   Overcast
4:35 PM 72.7 °F - 54.5 °F 53% 29.74 in 10.0 mi Calm Calm - N/A   Overcast
4:36 PM 72.7 °F - 54.0 °F 52% 29.74 in 10.0 mi Calm Calm - N/A   Overcast
4:55 PM 71.4 °F - 57.7 °F 62% 29.74 in 10.0 mi Calm Calm - N/A   Overcast
4:56 PM 71.1 °F - 57.7 °F 63% 29.74 in 10.0 mi Calm Calm - N/A   Overcast
5:15 PM 70.2 °F - 58.8 °F 67% 29.74 in 10.0 mi North 3.5 mph - N/A   Overcast
5:16 PM 70.2 °F - 58.3 °F 66% 29.74 in 10.0 mi Calm Calm - N/A   Overcast
5:35 PM 72.0 °F - 55.4 °F 56% 29.73 in 10.0 mi North 4.6 mph - N/A   Overcast
5:36 PM 72.1 °F - 55.4 °F 56% 29.73 in 10.0 mi North 4.6 mph - N/A   Mostly Cloudy
5:55 PM 71.6 °F - 56.7 °F 59% 29.73 in 7.0 mi North 5.8 mph - N/A   Mostly Cloudy
5:56 PM 71.4 °F - 56.8 °F 60% 29.73 in 7.0 mi North 5.8 mph - N/A   Mostly Cloudy
6:15 PM 69.6 °F - 57.9 °F 66% 29.72 in 10.0 mi NNW 4.6 mph - N/A   Mostly Cloudy
6:16 PM 69.6 °F - 57.9 °F 66% 29.73 in 10.0 mi NNW 4.6 mph - N/A   Mostly Cloudy
6:35 PM 68.2 °F - 57.2 °F 68% 29.72 in 10.0 mi North 5.8 mph - N/A   Overcast
6:36 PM 68.2 °F - 57.2 °F 68% 29.72 in 10.0 mi North 6.9 mph - N/A   Overcast
6:55 PM 67.1 °F - 56.7 °F 69% 29.73 in 10.0 mi North 4.6 mph - N/A   Overcast
6:56 PM 67.1 °F - 56.7 °F 69% 29.73 in 10.0 mi North 4.6 mph - N/A   Overcast
7:15 PM 65.7 °F - 56.3 °F 72% 29.74 in 10.0 mi North 4.6 mph - N/A   Overcast
7:16 PM 65.7 °F - 56.3 °F 72% 29.74 in 10.0 mi North 3.5 mph - N/A   Overcast
7:35 PM 65.1 °F - 55.4 °F 71% 29.74 in 10.0 mi North 3.5 mph - N/A   Overcast
7:36 PM 64.9 °F - 55.2 °F 71% 29.74 in 10.0 mi North 3.5 mph - N/A   Overcast
7:55 PM 63.9 °F - 54.3 °F 71% 29.74 in 10.0 mi North 5.8 mph - N/A   Overcast
7:56 PM 63.7 °F - 54.1 °F 71% 29.74 in 10.0 mi North 5.8 mph - N/A   Overcast
8:15 PM 63.7 °F - 54.0 °F 71% 29.74 in 10.0 mi ENE 3.5 mph - N/A   Overcast
8:16 PM 63.7 °F - 53.8 °F 70% 29.74 in 10.0 mi Calm Calm - N/A   Overcast
8:35 PM 62.6 °F - 54.0 °F 73% 29.74 in 10.0 mi NNW 3.5 mph - N/A   Overcast
8:36 PM 62.6 °F - 54.0 °F 73% 29.74 in 10.0 mi NNW 4.6 mph - N/A   Overcast
8:55 PM 61.3 °F - 52.7 °F 73% 29.73 in 10.0 mi NNW 3.5 mph - N/A   Overcast
8:56 PM 61.3 °F - 52.9 °F 74% 29.73 in 10.0 mi NNW 3.5 mph - N/A   Overcast
9:15 PM 61.0 °F - 53.2 °F 76% 29.74 in 10.0 mi Calm Calm - N/A Rain Light Rain
9:16 PM 61.0 °F - 53.2 °F 76% 29.74 in 10.0 mi Calm Calm - N/A Rain Light Rain
9:35 PM 60.6 °F - 54.0 °F 79% 29.75 in 10.0 mi SW 4.6 mph - N/A   Overcast
9:36 PM 60.6 °F - 54.0 °F 79% 29.75 in 10.0 mi SW 3.5 mph - N/A   Overcast
9:55 PM 59.9 °F - 52.7 °F 77% 29.76 in 10.0 mi SSE 4.6 mph - N/A   Mostly Cloudy
9:56 PM 59.9 °F - 52.9 °F 78% 29.76 in 10.0 mi SSE 4.6 mph - N/A   Mostly Cloudy
10:15 PM 59.0 °F - 53.6 °F 82% 29.75 in 10.0 mi Calm Calm - N/A   Scattered Clouds
10:16 PM 59.0 °F - 53.6 °F 82% 29.74 in 10.0 mi Calm Calm - N/A   Scattered Clouds
10:35 PM 57.6 °F - 53.6 °F 87% 29.74 in 10.0 mi South 4.6 mph - N/A   Scattered Clouds
10:36 PM 57.4 °F - 53.6 °F 87% 29.74 in 10.0 mi South 4.6 mph - N/A   Scattered Clouds
10:55 PM 58.3 °F - 54.3 °F 87% 29.73 in 10.0 mi Calm Calm - N/A   Mostly Cloudy
10:56 PM 58.3 °F - 54.3 °F 87% 29.73 in 10.0 mi Calm Calm - N/A   Mostly Cloudy
11:15 PM 58.6 °F - 53.6 °F 83% 29.74 in 10.0 mi Calm Calm - N/A   Overcast
11:16 PM 58.8 °F - 53.6 °F 83% 29.74 in 10.0 mi Calm Calm - N/A   Overcast
11:35 PM 57.7 °F - 54.0 °F 87% 29.74 in 10.0 mi WNW 3.5 mph - N/A   Mostly Cloudy
11:36 PM 57.9 °F - 54.0 °F 87% 29.74 in 10.0 mi NW 3.5 mph - N/A   Mostly Cloudy
11:55 PM 57.6 °F - 54.1 °F 88% 29.73 in 10.0 mi Calm Calm - N/A   Mostly Cloudy
11:56 PM 57.6 °F - 54.1 °F 88% 29.73 in 10.0 mi Calm Calm - N/A   Mostly Cloudy